Temperature
0 -1 -2 -2 -3 -3 -4 -5 -6 -6 -5 -5 -5 -5 -6 -6 -6 -6 -6 -6 -6 -6 -5 -5 -5 -5 -4 -4 -4 -3 -3 -3 -3 -2 -2 -1 -1 -0
-1 -2 -3 -4 -4 -4 -4 -5 -6 -7 -7 -6 -6 -6 -6 -6 -6 -6 -6 -6 -6 -6 -6 -6 -5 -5 -5 -4 -4 -4 -4 -4 -4 -3 -3 -2 -2 -1
-3 -4 -4 -5 -5 -5 -5 -6 -7 -7 -7 -7 -6 -7 -7 -7 -7 -7 -7 -7 -7 -7 -7 -6 -6 -6 -5 -5 -5 -5 -5 -5 -4 -4 -3 -3 -2 -2
-4 -4 -5 -5 -6 -6 -6 -7 -7 -7 -7 -7 -7 -7 -7 -7 -7 -7 -7 -7 -8 -8 -7 -7 -7 -7 -6 -6 -6 -6 -6 -5 -5 -5 -4 -4 -3 -3
-5 -5 -6 -6 -6 -7 -7 -8 -8 -8 -8 -8 -8 -7 -7 -7 -7 -8 -8 -8 -8 -8 -8 -8 -8 -7 -7 -7 -7 -6 -6 -6 -6 -6 -5 -5 -4 -4
-5 -6 -6 -7 -7 -8 -8 -8 -8 -8 -8 -8 -8 -7 -7 -7 -8 -8 -8 -9 -9 -9 -9 -9 -8 -8 -8 -8 -8 -8 -7 -7 -7 -6 -6 -5 -5 -4
-6 -6 -7 -7 -8 -8 -8 -8 -8 -8 -8 -8 -8 -8 -8 -8 -8 -9 -9 -9 -9 -9 -9 -9 -9 -9 -9 -9 -9 -9 -8 -8 -7 -7 -6 -5 -5 -5
-7 -7 -7 -8 -8 -8 -8 -8 -8 -8 -8 -8 -8 -8 -8 -9 -9 -9 -9 -9 -9 -9 -10 -10 -10 -10 -10 -9 -9 -9 -8 -8 -7 -7 -6 -6 -5 -5
-7 -8 -8 -9 -9 -9 -9 -9 -8 -8 -8 -8 -9 -9 -9 -9 -9 -9 -10 -10 -10 -10 -10 -10 -10 -10 -10 -10 -9 -9 -9 -8 -8 -7 -7 -6 -6 -5
-8 -8 -9 -9 -9 -9 -9 -8 -8 -9 -9 -9 -9 -9 -10 -10 -10 -10 -10 -10 -10 -10 -10 -11 -10 -10 -10 -10 -9 -9 -8 -8 -8 -7 -7 -7 -6 -6
-8 -9 -9 -9 -9 -9 -8 -9 -9 -9 -10 -10 -10 -10 -10 -10 -10 -10 -11 -11 -11 -11 -10 -11 -11 -11 -10 -9 -8 -8 -8 -8 -8 -7 -7 -7 -6 -6
-9 -9 -9 -9 -9 -9 -9 -9 -10 -10 -10 -10 -10 -10 -10 -10 -11 -11 -11 -11 -11 -11 -10 -11 -11 -11 -10 -9 -9 -9 -8 -8 -8 -8 -7 -7 -6 -6
-9 -9 -9 -10 -9 -9 -10 -10 -10 -10 -10 -10 -10 -11 -11 -11 -11 -11 -11 -11 -11 -11 -10 -10 -10 -10 -10 -10 -9 -9 -8 -8 -8 -7 -7 -7 -7 -6
-10 -10 -10 -10 -10 -10 -10 -11 -11 -11 -11 -12 -12 -12 -11 -11 -10 -10 -10 -10 -10 -10 -10 -10 -10 -10 -10 -10 -10 -8 -8 -7 -7 -7 -6 -6 -6 -6
-10 -10 -10 -10 -11 -10 -11 -11 -11 -12 -12 -12 -12 -12 -11 -11 -10 -10 -10 -10 -9 -9 -9 -9 -9 -10 -10 -10 -9 -8 -8 -6 -5 -5 -5 -5 -5 -5
-10 -10 -11 -10 -11 -11 -11 -11 -11 -12 -12 -12 -12 -11 -11 -11 -11 -11 -11 -10 -10 -9 -8 -9 -9 -9 -9 -8 -8 -7 -7 -6 -4 -4 -3 -3 -3 -3
-10 -11 -10 -11 -11 -11 -12 -12 -12 -12 -12 -12 -12 -11 -11 -11 -10 -10 -10 -10 -10 -10 -9 -8 -8 -8 -7 -7 -6 -6 -5 -4 -3 -2 -2 -1 -1 -1
-11 -11 -12 -12 -13 -13 -13 -12 -12 -12 -12 -11 -11 -11 -11 -11 -11 -10 -10 -10 -10 -9 -9 -8 -8 -7 -6 -5 -5 -5 -4 -3 -2 -1 -1 -1 -0 0
-11 -12 -13 -13 -13 -13 -13 -12 -12 -11 -11 -11 -10 -10 -10 -10 -10 -10 -10 -10 -9 -9 -8 -8 -8 -8 -8 -7 -4 -4 -3 -3 -2 -1 -1 -1 -0 0
-12 -12 -13 -12 -12 -12 -12 -12 -11 -10 -10 -10 -10 -9 -10 -10 -10 -10 -9 -9 -9 -9 -8 -7 -7 -7 -7 -7 -5 -4 -3 -3 -2 -2 -2 -1 -1 0
-12 -12 -12 -12 -11 -11 -11 -11 -10 -10 -9 -9 -9 -9 -9 -9 -9 -9 -9 -9 -8 -8 -8 -7 -7 -6 -6 -5 -5 -4 -4 -3 -3 -2 -2 -2 -2 -1
-12 -12 -11 -11 -11 -11 -10 -10 -10 -9 -9 -9 -8 -8 -8 -8 -8 -8 -8 -8 -8 -8 -8 -7 -7 -6 -5 -5 -5 -4 -4 -4 -3 -3 -3 -3 -3 -3
-12 -11 -11 -11 -10 -10 -10 -9 -9 -8 -8 -8 -8 -8 -8 -8 -8 -8 -8 -8 -8 -7 -7 -7 -6 -6 -6 -5 -5 -5 -5 -4 -4 -4 -4 -4 -3 -3
Wind_Speed
6 5 4 5 6 7 7 8 11 19 19 10 6 6 6 7 16 15 13 25 31 33 34 34 34 34 34 33 32 32 32 32 33 34 34 34 34 34
5 6 6 6 7 7 7 7 9 13 18 14 11 8 9 13 20 15 14 29 30 32 33 34 33 34 34 34 34 33 33 33 34 34 34 34 34 34
7 7 8 8 7 7 8 8 9 10 17 19 15 11 10 11 13 9 13 11 15 29 33 34 35 35 35 34 34 34 34 34 35 35 34 34 34 34
9 8 8 9 9 9 9 10 11 11 14 20 19 15 13 12 12 11 13 15 12 26 32 33 34 34 34 34 35 35 35 35 35 34 34 34 34 34
9 8 9 9 11 10 12 12 11 13 11 16 19 17 14 12 12 14 14 11 16 21 27 30 32 34 35 35 35 35 35 35 34 34 34 34 34 34
8 9 9 10 12 12 13 11 12 13 13 15 17 16 14 11 11 14 15 10 13 17 22 25 28 32 33 34 34 34 34 34 34 34 34 33 33 34
9 8 10 16 21 18 17 15 15 15 16 16 17 17 15 14 14 14 18 16 13 12 13 13 14 14 16 25 29 32 33 33 33 33 33 32 32 32
10 9 11 14 19 26 29 28 26 21 19 19 18 18 18 16 16 17 18 19 17 8 11 15 13 15 13 12 25 32 33 34 34 33 33 33 32 31
10 11 14 16 20 14 22 27 24 29 28 20 19 18 20 19 20 21 19 19 20 15 15 18 12 15 14 18 31 33 34 35 35 35 34 34 33 32
10 11 12 13 16 21 19 18 16 15 19 16 14 17 17 17 17 19 19 19 17 13 13 17 15 15 17 14 28 33 34 34 34 34 33 33 32 31
10 11 14 13 25 31 22 19 17 14 21 25 26 25 29 30 24 16 15 15 17 16 11 13 16 16 16 16 20 29 31 31 31 31 31 30 30 29
10 10 18 23 29 30 19 15 16 17 17 17 19 21 18 19 24 16 14 15 16 14 10 9 14 13 11 10 10 11 15 24 29 30 31 30 29 19
12 11 12 27 30 29 24 13 20 22 15 15 15 15 14 13 14 14 14 14 15 16 14 12 14 14 13 12 11 11 12 14 15 19 24 28 29 23
13 12 15 28 29 27 21 22 27 22 13 14 14 14 14 14 15 16 17 17 16 19 19 18 15 15 15 17 14 9 10 12 14 15 13 19 23 26
12 22 25 27 24 18 21 25 21 13 13 13 14 14 13 14 15 15 15 15 16 16 15 16 15 14 13 14 13 14 13 12 12 11 11 11 11 12
12 16 22 22 19 19 18 16 12 13 14 13 14 14 13 13 14 14 15 15 14 14 11 11 13 14 13 13 13 15 14 9 10 10 8 7 7 9
16 8 9 12 12 13 13 13 12 13 14 13 14 15 15 15 15 13 13 13 13 13 14 11 10 11 12 11 10 12 13 12 11 8 4 2 2 5
17 11 12 12 13 14 14 15 14 14 14 14 14 14 15 15 15 14 13 12 13 13 13 12 12 9 6 5 8 10 11 9 9 8 5 5 5 3
11 11 12 12 13 13 13 14 14 14 13 13 14 14 14 14 14 14 13 13 12 12 12 11 10 8 8 9 9 12 10 8 9 10 10 9 9 8
10 11 12 13 13 13 13 14 14 14 13 13 14 14 13 13 14 13 13 13 12 12 11 10 9 9 7 7 7 8 17 12 9 11 11 11 11 14
12 12 12 12 13 13 13 13 14 14 15 14 14 14 13 13 13 13 12 16 13 10 10 10 10 15 8 6 5 8 12 20 21 13 9 10 12 15
12 13 13 13 13 13 13 13 14 14 15 14 13 13 13 12 13 13 12 11 9 9 8 8 9 8 7 8 8 9 12 14 21 30 30 23 12 11
13 13 13 13 13 13 13 14 15 15 14 14 13 13 13 13 12 11 10 9 8 8 7 7 8 6 7 7 8 9 13 14 14 17 20 28 31 31
Wind_Direction
305 305 306 301 301 296 296 298 302 307 305 298 288 256 256 266 285 292 282 292 296 296 296 295 293 291 288 286 285 286 286 285 283 281 278 275 273 272
301 304 302 299 299 296 293 291 287 292 297 300 299 286 280 293 295 292 286 293 295 296 295 293 292 291 289 287 285 285 285 285 283 281 278 275 273 271
296 301 294 297 301 302 297 292 288 286 293 299 300 297 285 280 286 271 277 275 283 292 294 293 292 290 288 286 285 285 285 284 282 280 278 277 275 272
291 290 290 306 304 303 298 293 291 284 287 296 301 303 295 289 287 281 293 292 287 292 293 293 293 292 291 289 288 286 285 283 281 279 277 275 273 272
286 284 288 297 301 301 297 294 292 294 290 295 298 299 297 296 296 295 290 285 290 292 293 292 290 290 289 288 287 286 285 283 280 278 276 274 272 270
282 279 283 290 295 299 300 294 299 301 297 295 295 297 298 296 295 301 301 288 288 290 288 287 288 289 288 288 288 286 285 282 279 276 273 270 268 266
292 284 287 304 309 309 308 309 307 302 302 302 301 301 302 305 304 303 301 299 288 284 285 284 285 281 281 282 282 282 280 278 275 273 272 270 268 266
309 303 300 305 308 314 312 308 306 306 306 304 303 304 305 303 303 302 302 302 300 290 286 290 285 282 279 274 278 279 278 278 276 275 274 272 270 268
310 308 312 314 315 302 302 306 305 303 304 304 303 302 302 304 304 304 302 300 297 298 296 293 286 284 282 280 283 282 280 279 277 274 272 269 266 264
300 298 299 302 307 310 308 308 303 303 302 302 297 299 302 302 301 302 300 298 294 290 287 290 292 288 287 281 283 281 280 278 275 272 269 265 262 260
296 298 307 306 308 314 317 314 314 310 311 310 310 309 308 309 308 307 305 303 301 298 291 286 291 292 288 283 279 279 279 279 277 274 271 265 261 257
305 299 312 315 315 320 322 321 318 314 316 318 315 310 306 305 309 307 303 299 298 299 293 286 293 299 295 272 264 270 275 277 276 274 270 266 261 255
319 317 313 318 322 326 328 323 314 321 325 318 313 310 310 309 309 306 301 296 295 292 294 296 294 293 289 293 288 275 271 271 271 268 266 262 257 248
318 315 316 323 328 329 327 320 324 329 321 315 314 314 315 313 311 307 301 296 288 286 289 291 290 292 295 295 297 291 281 277 271 265 256 254 251 244
316 320 324 328 330 327 321 325 329 324 318 317 316 314 311 306 307 307 304 300 293 288 286 285 288 291 289 290 293 294 300 294 279 266 257 243 233 226
318 323 328 327 327 324 324 324 322 318 320 317 314 311 311 310 311 311 312 313 311 308 297 284 287 292 293 287 285 289 294 291 292 286 270 246 223 212
331 327 325 326 326 324 323 323 323 322 321 318 315 315 315 314 313 314 312 313 313 314 319 318 310 299 282 275 286 293 299 301 298 299 294 276 212 197
335 327 324 323 323 323 322 322 322 321 319 317 314 313 313 314 314 316 316 316 317 318 319 321 327 328 324 287 266 299 314 320 332 348 12 37 49 70
332 322 320 320 319 318 318 317 317 315 314 313 312 312 312 312 313 316 319 320 321 321 322 324 329 333 336 336 325 331 343 347 2 21 31 39 45 48
325 320 318 317 316 315 315 314 313 313 313 312 311 310 311 312 313 315 318 320 323 325 326 330 334 337 329 316 312 333 6 19 17 26 31 40 48 53
323 320 317 314 313 312 311 310 309 309 308 309 308 308 310 311 312 313 315 321 327 326 329 330 326 331 327 328 353 17 28 36 43 40 23 40 54 57
320 317 314 311 311 310 310 309 309 307 307 307 306 307 308 308 309 310 314 320 322 323 321 322 330 340 357 14 25 30 41 45 47 51 51 53 56 62
317 314 311 310 309 308 308 307 305 304 304 303 303 304 305 306 306 307 312 316 319 324 329 336 345 355 6 15 28 40 49 53 56 59 59 59 66 69
Height
1440 1436 1432 1428 1423 1419 1414 1409 1402 1387 1374 1375 1374 1372 1370 1367 1364 1360 1355 1351 1347 1342 1338 1333 1329 1325 1321 1318 1316 1313 1311 1309 1307 1305 1304 1304 1303 1303
1435 1430 1425 1421 1415 1411 1406 1402 1397 1390 1375 1366 1364 1363 1360 1358 1355 1351 1346 1341 1337 1332 1327 1322 1317 1313 1309 1306 1303 1301 1298 1296 1294 1292 1291 1290 1290 1290
1429 1424 1419 1414 1408 1403 1399 1394 1390 1385 1375 1361 1357 1353 1350 1346 1342 1339 1335 1330 1325 1321 1316 1310 1305 1301 1297 1293 1290 1288 1285 1283 1281 1279 1278 1277 1277 1277
1423 1418 1413 1408 1402 1397 1392 1386 1382 1378 1371 1360 1350 1345 1341 1337 1332 1328 1324 1320 1315 1310 1304 1299 1293 1289 1285 1281 1278 1275 1272 1269 1267 1266 1264 1264 1263 1263
1417 1412 1407 1402 1395 1390 1385 1380 1375 1370 1365 1357 1346 1339 1333 1329 1323 1317 1313 1308 1303 1298 1292 1287 1282 1277 1273 1269 1265 1262 1258 1256 1253 1252 1251 1250 1250 1250
1412 1407 1402 1396 1390 1384 1379 1374 1369 1362 1356 1348 1340 1332 1326 1321 1316 1308 1300 1295 1290 1285 1280 1275 1270 1265 1261 1256 1252 1248 1244 1241 1239 1238 1237 1236 1236 1236
1406 1401 1396 1391 1386 1381 1375 1368 1362 1355 1348 1341 1333 1325 1319 1313 1307 1300 1291 1284 1278 1274 1267 1262 1258 1251 1247 1242 1238 1234 1230 1228 1226 1224 1223 1223 1223 1223
1399 1394 1389 1384 1379 1374 1368 1362 1356 1350 1341 1334 1326 1319 1312 1306 1299 1292 1284 1275 1266 1265 1258 1250 1247 1239 1234 1230 1225 1221 1218 1215 1213 1211 1210 1209 1209 1210
1393 1388 1382 1377 1372 1365 1358 1353 1348 1342 1337 1330 1320 1313 1305 1298 1292 1284 1277 1269 1260 1254 1249 1238 1234 1228 1222 1217 1213 1209 1205 1202 1199 1197 1196 1195 1196 1196
1388 1383 1377 1370 1364 1358 1351 1344 1338 1332 1327 1321 1314 1306 1299 1292 1286 1278 1269 1260 1251 1246 1242 1231 1222 1216 1210 1203 1198 1194 1190 1187 1184 1182 1181 1181 1181 1183
1382 1377 1372 1365 1358 1352 1345 1337 1329 1323 1318 1312 1306 1299 1291 1284 1278 1270 1262 1254 1244 1235 1232 1225 1214 1206 1198 1190 1185 1182 1178 1175 1171 1169 1167 1167 1167 1169
1375 1370 1366 1359 1352 1346 1339 1331 1322 1315 1308 1301 1295 1288 1281 1275 1270 1264 1257 1249 1240 1229 1222 1217 1207 1200 1187 1178 1174 1170 1165 1161 1157 1154 1152 1152 1153 1156
1370 1364 1358 1352 1346 1340 1333 1325 1318 1311 1303 1295 1287 1280 1274 1268 1262 1256 1250 1244 1235 1225 1217 1211 1202 1195 1188 1174 1164 1160 1155 1148 1143 1139 1137 1137 1138 1141
1367 1359 1352 1347 1340 1333 1326 1319 1314 1306 1298 1290 1283 1276 1269 1261 1255 1248 1242 1236 1229 1221 1212 1206 1198 1190 1182 1171 1159 1149 1144 1138 1132 1127 1123 1122 1124 1127
1362 1355 1348 1341 1333 1326 1320 1315 1308 1300 1294 1287 1280 1272 1265 1257 1250 1242 1234 1228 1220 1213 1206 1200 1193 1185 1178 1168 1157 1146 1137 1128 1122 1117 1114 1112 1113 1116
1356 1348 1342 1335 1328 1322 1315 1309 1303 1297 1292 1285 1277 1269 1261 1253 1246 1239 1230 1222 1214 1205 1201 1195 1187 1180 1171 1163 1155 1144 1135 1127 1117 1112 1108 1107 1107 1110
1351 1343 1336 1329 1322 1316 1311 1305 1299 1293 1287 1281 1273 1265 1258 1250 1242 1236 1228 1221 1213 1204 1195 1189 1183 1176 1168 1161 1152 1143 1134 1126 1118 1112 1108 1106 1106 1108
1346 1339 1332 1326 1320 1314 1308 1301 1295 1289 1283 1277 1270 1263 1256 1248 1240 1233 1227 1220 1213 1205 1197 1189 1181 1173 1167 1160 1155 1146 1138 1130 1123 1117 1113 1111 1110 1111
1342 1335 1330 1324 1318 1312 1305 1299 1292 1286 1280 1274 1267 1261 1254 1246 1239 1232 1225 1219 1212 1205 1199 1192 1185 1179 1172 1165 1158 1153 1146 1138 1132 1126 1122 1119 1117 1117
1338 1333 1327 1321 1315 1309 1302 1296 1289 1283 1277 1271 1265 1258 1252 1245 1238 1232 1225 1220 1213 1207 1200 1194 1189 1183 1178 1173 1166 1160 1155 1148 1141 1137 1133 1130 1127 1126
1335 1329 1324 1318 1312 1306 1299 1293 1286 1280 1274 1268 1262 1256 1250 1244 1237 1232 1226 1220 1215 1209 1203 1198 1193 1189 1184 1178 1173 1169 1165 1159 1154 1148 1144 1141 1139 1137
1332 1326 1320 1315 1309 1303 1296 1290 1283 1277 1271 1265 1259 1254 1248 1242 1237 1231 1226 1221 1216 1211 1207 1202 1197 1193 1189 1184 1181 1178 1174 1170 1166 1161 1158 1155 1154 1153
1329 1323 1317 1311 1305 1299 1293 1286 1280 1274 1268 1262 1256 1251 1246 1241 1236 1232 1227 1223 1218 1214 1210 1206 1202 1198 1195 1192 1189 1186 1184 1181 1179 1175 1174 1173 1171 1169